EJU51BT LPPR-LPMA

Flight info

Callsign EJU51BT
Flight time 1h 57m
Altitude 35000
Route ASMOV DCT DIRMA DCT VABEM DCT LIDRO
Aircraft A320/M-SDE2E3FGHIJ1RWXYZ/LB1

Departure

Time 2026-05-07 23:18
Airport Francisco de Sá Carneiro Airport (LPPR)

Arrival

Time 2026-05-08 01:15
Airport Cristiano Ronaldo International Airport (LPMA)
Time Latitude Longitude Altitude Speed Heading
2026-05-07 22:40 41.23593 -8.67219 245 ft 0 kts 89°
2026-05-07 23:10 41.23593 -8.67220 245 ft 2 kts 89°
2026-05-07 23:10 41.23593 -8.67254 245 ft 4 kts 92°
2026-05-07 23:10 41.23596 -8.67289 243 ft 4 kts 103°
2026-05-07 23:10 41.23606 -8.67319 242 ft 4 kts 146°
2026-05-07 23:11 41.23616 -8.67325 242 ft 1 kts 195°
2026-05-07 23:13 41.23613 -8.67326 242 ft 2 kts 194°
2026-05-07 23:13 41.23582 -8.67341 241 ft 7 kts 209°
2026-05-07 23:13 41.23524 -8.67384 240 ft 11 kts 199°
2026-05-07 23:14 41.23450 -8.67377 240 ft 10 kts 168°
2026-05-07 23:14 41.23396 -8.67363 239 ft 7 kts 171°
2026-05-07 23:14 41.23347 -8.67388 237 ft 9 kts 230°
2026-05-07 23:14 41.23327 -8.67469 238 ft 10 kts 258°
2026-05-07 23:15 41.23320 -8.67513 235 ft 0 kts 258°
2026-05-07 23:16 41.23320 -8.67516 235 ft 3 kts 258°
2026-05-07 23:17 41.23305 -8.67609 236 ft 15 kts 259°
2026-05-07 23:17 41.23324 -8.67727 238 ft 14 kts 321°
2026-05-07 23:17 41.23399 -8.67759 237 ft 11 kts 350°
2026-05-07 23:17 41.23437 -8.67767 236 ft 0 kts 349°
2026-05-07 23:18 41.23521 -8.67789 235 ft 42 kts 348°
2026-05-07 23:18 41.24104 -8.67943 215 ft 125 kts 349°
2026-05-07 23:18 41.25174 -8.68237 298 ft 177 kts 347°
2026-05-07 23:18 41.26368 -8.68492 1317 ft 174 kts 349°
2026-05-07 23:19 41.27571 -8.68777 2030 ft 179 kts 343°
2026-05-07 23:19 41.28847 -8.69131 2357 ft 201 kts 344°
2026-05-07 23:19 41.30297 -8.69538 2647 ft 226 kts 345°
2026-05-07 23:19 41.31918 -8.69984 3051 ft 249 kts 346°
2026-05-07 23:20 41.33667 -8.70453 3738 ft 261 kts 347°
2026-05-07 23:20 41.35477 -8.70932 4537 ft 269 kts 346°
2026-05-07 23:20 41.37345 -8.71423 5323 ft 276 kts 346°
2026-05-07 23:20 41.39211 -8.72104 6067 ft 281 kts 330°
2026-05-07 23:21 41.40733 -8.73711 6774 ft 281 kts 303°
2026-05-07 23:21 41.41561 -8.76025 7502 ft 277 kts 277°
2026-05-07 23:21 41.41578 -8.78521 8265 ft 274 kts 256°
2026-05-07 23:21 41.41205 -8.81025 9051 ft 277 kts 255°
2026-05-07 23:22 41.40753 -8.83536 9819 ft 280 kts 247°
2026-05-07 23:22 41.39898 -8.85871 10478 ft 283 kts 234°
2026-05-07 23:22 41.38591 -8.87948 10704 ft 303 kts 219°
2026-05-07 23:22 41.36930 -8.89807 11060 ft 318 kts 218°
2026-05-07 23:23 41.35216 -8.91727 11702 ft 324 kts 218°
2026-05-07 23:23 41.33481 -8.93687 12394 ft 329 kts 219°
2026-05-07 23:23 41.31753 -8.95652 13080 ft 333 kts 219°
2026-05-07 23:23 41.29976 -8.97670 13746 ft 337 kts 219°
2026-05-07 23:24 41.28182 -8.99699 14331 ft 341 kts 219°
2026-05-07 23:24 41.26368 -9.01745 14919 ft 344 kts 219°
2026-05-07 23:24 41.24528 -9.03820 15514 ft 348 kts 219°
2026-05-07 23:24 41.22667 -9.05914 16106 ft 352 kts 219°
2026-05-07 23:25 41.20787 -9.08028 16697 ft 355 kts 219°
2026-05-07 23:25 41.18891 -9.10154 17299 ft 358 kts 219°
2026-05-07 23:25 41.17001 -9.12271 17898 ft 361 kts 219°
2026-05-07 23:25 41.15071 -9.14427 18450 ft 364 kts 219°
2026-05-07 23:26 41.13128 -9.16591 18950 ft 367 kts 219°
2026-05-07 23:26 41.11161 -9.18773 19459 ft 369 kts 219°
2026-05-07 23:26 41.09183 -9.20956 19963 ft 372 kts 219°
2026-05-07 23:26 41.07183 -9.23159 20465 ft 374 kts 219°
2026-05-07 23:27 41.03177 -9.27644 21433 ft 379 kts 220°
2026-05-07 23:27 41.01163 -9.29920 21904 ft 382 kts 220°
2026-05-07 23:27 40.99132 -9.32214 22375 ft 385 kts 220°
2026-05-07 23:28 40.97087 -9.34514 22838 ft 387 kts 219°
2026-05-07 23:28 40.95019 -9.36752 23325 ft 388 kts 218°
2026-05-07 23:28 40.92890 -9.38965 23768 ft 390 kts 218°
2026-05-07 23:28 40.90732 -9.41156 24160 ft 391 kts 217°
2026-05-07 23:29 40.88568 -9.43338 24559 ft 392 kts 218°
2026-05-07 23:29 40.86389 -9.45534 24949 ft 394 kts 218°
2026-05-07 23:29 40.84209 -9.47736 25362 ft 394 kts 218°
2026-05-07 23:29 40.82035 -9.49943 25810 ft 394 kts 218°
2026-05-07 23:30 40.79867 -9.52152 26202 ft 395 kts 218°
2026-05-07 23:30 40.77689 -9.54372 26570 ft 396 kts 218°
2026-05-07 23:30 40.76241 -9.55850 26800 ft 397 kts 218°
2026-05-07 23:30 40.73343 -9.58808 27281 ft 399 kts 218°
2026-05-07 23:31 40.71137 -9.61056 27640 ft 400 kts 218°
2026-05-07 23:31 40.68933 -9.63296 28006 ft 401 kts 218°
2026-05-07 23:31 40.66714 -9.65547 28357 ft 403 kts 218°
2026-05-07 23:31 40.64482 -9.67808 28698 ft 405 kts 219°
2026-05-07 23:32 40.62241 -9.70081 29027 ft 406 kts 219°
2026-05-07 23:32 40.59995 -9.72352 29352 ft 408 kts 219°
2026-05-07 23:32 40.57738 -9.74628 29671 ft 410 kts 219°
2026-05-07 23:32 40.56235 -9.76144 29867 ft 411 kts 219°
2026-05-07 23:33 40.53967 -9.78432 30141 ft 412 kts 219°
2026-05-07 23:33 40.50944 -9.81482 30491 ft 414 kts 219°
2026-05-07 23:33 40.48656 -9.83788 30752 ft 415 kts 219°
2026-05-07 23:33 40.46371 -9.86089 31112 ft 413 kts 219°
2026-05-07 23:34 40.44100 -9.88374 31551 ft 409 kts 219°
2026-05-07 23:34 40.42606 -9.89877 31820 ft 407 kts 219°
2026-05-07 23:34 40.40357 -9.92140 32201 ft 405 kts 219°
2026-05-07 23:34 40.38121 -9.94388 32566 ft 403 kts 219°
2026-05-07 23:35 40.35889 -9.96626 32928 ft 402 kts 219°
2026-05-07 23:35 40.33670 -9.98849 33283 ft 400 kts 219°
2026-05-07 23:35 40.31489 -10.01032 33630 ft 399 kts 219°
2026-05-07 23:35 40.29284 -10.03231 33978 ft 398 kts 219°
2026-05-07 23:36 40.27085 -10.05422 34283 ft 396 kts 219°
2026-05-07 23:36 40.24897 -10.07607 34591 ft 394 kts 219°
2026-05-07 23:36 40.22719 -10.09780 34858 ft 393 kts 219°
2026-05-07 23:36 40.20551 -10.11943 34924 ft 388 kts 219°
2026-05-07 23:37 40.16283 -10.16203 34931 ft 383 kts 219°
2026-05-07 23:37 40.12038 -10.20425 34949 ft 383 kts 219°
2026-05-07 23:38 40.07808 -10.24613 34934 ft 384 kts 218°
2026-05-07 23:38 40.03557 -10.28826 34934 ft 384 kts 218°
2026-05-07 23:39 39.99305 -10.33037 34933 ft 383 kts 218°
2026-05-07 23:39 39.95051 -10.37236 34942 ft 383 kts 218°
2026-05-07 23:40 39.90797 -10.41435 34945 ft 382 kts 218°
2026-05-07 23:40 39.86584 -10.45585 34947 ft 382 kts 218°
2026-05-07 23:41 39.82308 -10.49778 34948 ft 382 kts 218°
2026-05-07 23:41 39.78089 -10.53916 34951 ft 382 kts 218°
2026-05-07 23:42 39.73847 -10.58081 34964 ft 381 kts 217°
2026-05-07 23:42 39.69608 -10.62234 34963 ft 381 kts 217°
2026-05-07 23:43 39.65379 -10.66372 34961 ft 382 kts 217°
2026-05-07 23:43 39.61148 -10.70552 34965 ft 386 kts 217°
2026-05-07 23:44 39.56869 -10.74781 34965 ft 386 kts 217°
2026-05-07 23:44 39.52615 -10.78981 34945 ft 386 kts 217°
2026-05-07 23:45 39.48366 -10.83270 34944 ft 383 kts 224°
2026-05-07 23:45 39.44438 -10.87863 34945 ft 380 kts 217°
2026-05-07 23:46 39.40092 -10.91737 34945 ft 379 kts 214°
2026-05-07 23:46 39.35762 -10.95583 34962 ft 380 kts 216°
2026-05-07 23:47 39.31495 -10.99632 34962 ft 381 kts 217°
2026-05-07 23:47 39.27253 -11.03758 34957 ft 380 kts 217°
2026-05-07 23:48 39.23068 -11.07814 34959 ft 378 kts 217°
2026-05-07 23:48 39.18840 -11.11861 34958 ft 377 kts 217°
2026-05-07 23:49 39.14622 -11.15895 34957 ft 377 kts 217°
2026-05-07 23:49 39.10409 -11.19921 34957 ft 377 kts 217°
2026-05-07 23:50 39.10181 -11.20139 34957 ft 377 kts 217°
2026-05-07 23:51 39.07937 -11.22281 34956 ft 377 kts 217°
2026-05-07 23:51 39.03715 -11.26315 34957 ft 377 kts 217°
2026-05-07 23:52 38.99512 -11.30331 34952 ft 374 kts 217°
2026-05-07 23:52 38.95354 -11.34286 34976 ft 374 kts 216°
2026-05-07 23:53 38.91161 -11.38267 34978 ft 375 kts 216°
2026-05-07 23:53 38.86959 -11.42243 34979 ft 375 kts 216°
2026-05-07 23:54 38.82759 -11.46209 34981 ft 375 kts 216°
2026-05-07 23:54 38.78560 -11.50184 34981 ft 375 kts 216°
2026-05-07 23:55 38.74395 -11.54124 34963 ft 373 kts 216°
2026-05-07 23:55 38.70219 -11.58067 34964 ft 373 kts 216°
2026-05-07 23:56 38.66033 -11.61998 34965 ft 373 kts 216°
2026-05-07 23:56 38.61857 -11.65928 34964 ft 372 kts 216°
2026-05-07 23:57 38.57676 -11.69848 34968 ft 372 kts 216°
2026-05-07 23:57 38.53523 -11.73742 34967 ft 372 kts 216°
2026-05-07 23:58 38.49347 -11.77653 34957 ft 371 kts 216°
2026-05-07 23:58 38.45204 -11.81516 34945 ft 370 kts 216°
2026-05-07 23:59 38.41043 -11.85398 34948 ft 370 kts 216°
2026-05-07 23:59 38.36880 -11.89278 34948 ft 370 kts 216°
2026-05-08 00:00 38.32744 -11.93131 34948 ft 370 kts 216°
2026-05-08 00:00 38.28584 -11.97000 34945 ft 370 kts 216°
2026-05-08 00:01 38.24427 -12.00850 34937 ft 369 kts 216°
2026-05-08 00:01 38.20281 -12.04686 34978 ft 368 kts 216°
2026-05-08 00:02 38.16137 -12.08519 34951 ft 368 kts 215°
2026-05-08 00:02 38.12008 -12.12326 34940 ft 369 kts 215°
2026-05-08 00:03 38.07855 -12.16160 34935 ft 369 kts 215°
2026-05-08 00:03 38.03684 -12.20005 34933 ft 369 kts 215°
2026-05-08 00:04 37.99544 -12.23810 34924 ft 369 kts 215°
2026-05-08 00:04 37.95376 -12.27633 34935 ft 369 kts 215°
2026-05-08 00:05 37.91241 -12.31429 34943 ft 368 kts 215°
2026-05-08 00:05 37.87091 -12.35235 34943 ft 368 kts 215°
2026-05-08 00:06 37.82939 -12.39035 34944 ft 368 kts 215°
2026-05-08 00:06 37.78782 -12.42830 34970 ft 368 kts 214°
2026-05-08 00:07 37.74633 -12.46608 34955 ft 369 kts 214°
2026-05-08 00:07 37.70484 -12.50392 34947 ft 370 kts 214°
2026-05-08 00:08 37.66298 -12.54197 34939 ft 370 kts 214°
2026-05-08 00:08 37.62114 -12.57994 34938 ft 370 kts 214°
2026-05-08 00:09 37.57949 -12.61769 34941 ft 370 kts 214°
2026-05-08 00:09 37.53757 -12.65564 34942 ft 370 kts 214°
2026-05-08 00:10 37.49569 -12.69346 34930 ft 370 kts 214°
2026-05-08 00:10 37.45413 -12.73097 34951 ft 369 kts 214°
2026-05-08 00:11 37.41234 -12.76863 34965 ft 368 kts 214°
2026-05-08 00:11 37.37077 -12.80612 34979 ft 366 kts 214°
2026-05-08 00:12 37.32956 -12.84321 34972 ft 366 kts 214°
2026-05-08 00:12 37.28810 -12.88043 34967 ft 366 kts 214°
2026-05-08 00:13 37.24659 -12.91768 34964 ft 366 kts 214°
2026-05-08 00:13 37.20531 -12.95470 34952 ft 366 kts 214°
2026-05-08 00:14 37.16376 -12.99178 34957 ft 366 kts 214°
2026-05-08 00:14 37.12246 -13.02861 34956 ft 366 kts 214°
2026-05-08 00:15 37.08096 -13.06567 34952 ft 366 kts 214°
2026-05-08 00:15 37.03933 -13.10272 34952 ft 366 kts 214°
2026-05-08 00:16 36.99794 -13.13947 35001 ft 366 kts 214°
2026-05-08 00:16 36.95656 -13.17616 34975 ft 366 kts 214°
2026-05-08 00:17 36.91506 -13.21304 34971 ft 365 kts 214°
2026-05-08 00:17 36.87350 -13.24984 34957 ft 365 kts 214°
2026-05-08 00:18 36.83234 -13.28627 34958 ft 365 kts 214°
2026-05-08 00:18 36.79086 -13.32285 34955 ft 364 kts 214°
2026-05-08 00:19 36.74940 -13.35949 34954 ft 364 kts 214°
2026-05-08 00:19 36.70786 -13.39603 34945 ft 367 kts 214°
2026-05-08 00:20 36.66557 -13.43320 34961 ft 379 kts 214°
2026-05-08 00:20 36.62181 -13.47166 34960 ft 388 kts 214°
2026-05-08 00:21 36.57778 -13.51033 34961 ft 389 kts 214°
2026-05-08 00:21 36.53357 -13.54902 34959 ft 388 kts 214°
2026-05-08 00:22 36.48937 -13.58773 34956 ft 388 kts 214°
2026-05-08 00:22 36.44552 -13.62614 34941 ft 388 kts 214°
2026-05-08 00:23 36.40131 -13.66472 34937 ft 388 kts 214°
2026-05-08 00:23 36.35696 -13.70329 34938 ft 388 kts 213°
2026-05-08 00:24 36.31286 -13.74146 34943 ft 389 kts 214°
2026-05-08 00:24 36.26849 -13.78005 34943 ft 389 kts 214°
2026-05-08 00:25 36.23162 -13.81219 34946 ft 389 kts 214°
2026-05-08 00:25 36.18008 -13.85685 34970 ft 389 kts 214°
2026-05-08 00:26 36.14306 -13.88883 34948 ft 391 kts 214°
2026-05-08 00:26 36.09834 -13.92741 34936 ft 392 kts 214°
2026-05-08 00:27 36.05346 -13.96610 34935 ft 394 kts 214°
2026-05-08 00:27 36.00850 -14.00477 34939 ft 394 kts 214°
2026-05-08 00:28 35.96338 -14.04362 34942 ft 395 kts 214°
2026-05-08 00:28 35.91850 -14.08214 34940 ft 395 kts 214°
2026-05-08 00:29 35.87333 -14.12085 34931 ft 395 kts 214°
2026-05-08 00:29 35.82814 -14.15958 34938 ft 395 kts 214°
2026-05-08 00:30 35.78295 -14.19826 34943 ft 395 kts 214°
2026-05-08 00:30 35.73767 -14.23698 34951 ft 397 kts 214°
2026-05-08 00:31 35.69243 -14.27563 34935 ft 399 kts 214°
2026-05-08 00:31 35.64655 -14.31460 34933 ft 401 kts 214°
2026-05-08 00:32 35.60081 -14.35347 34928 ft 402 kts 215°
2026-05-08 00:32 35.55468 -14.39262 34933 ft 403 kts 215°
2026-05-08 00:33 35.50844 -14.43183 34937 ft 404 kts 215°
2026-05-08 00:33 35.46199 -14.47115 34941 ft 404 kts 215°
2026-05-08 00:34 35.41592 -14.51010 34940 ft 405 kts 215°
2026-05-08 00:34 35.36944 -14.54940 34941 ft 405 kts 215°
2026-05-08 00:35 35.32299 -14.58856 34944 ft 405 kts 216°
2026-05-08 00:35 35.27634 -14.62783 34934 ft 407 kts 216°
2026-05-08 00:36 35.22948 -14.66730 34931 ft 409 kts 216°
2026-05-08 00:36 35.18279 -14.70660 34934 ft 410 kts 216°
2026-05-08 00:37 35.13565 -14.74607 34938 ft 411 kts 216°
2026-05-08 00:38 35.06472 -14.80531 34942 ft 411 kts 216°
2026-05-08 00:38 35.01747 -14.84477 34944 ft 412 kts 216°
2026-05-08 00:39 34.97046 -14.88405 34946 ft 412 kts 216°
2026-05-08 00:39 34.92411 -14.92256 34960 ft 391 kts 216°
2026-05-08 00:40 34.87971 -14.95954 34961 ft 390 kts 216°
2026-05-08 00:40 34.83477 -14.99699 34959 ft 392 kts 216°
2026-05-08 00:41 34.78966 -15.03435 34962 ft 392 kts 217°
2026-05-08 00:41 34.74454 -15.07177 34961 ft 392 kts 217°
2026-05-08 00:42 34.69941 -15.10904 34962 ft 392 kts 217°
2026-05-08 00:42 34.65462 -15.14612 34960 ft 392 kts 217°
2026-05-08 00:42 34.63208 -15.16474 34776 ft 390 kts 217°
2026-05-08 00:43 34.60966 -15.18321 34548 ft 387 kts 217°
2026-05-08 00:43 34.58748 -15.20149 34317 ft 385 kts 217°
2026-05-08 00:43 34.56532 -15.21975 34082 ft 383 kts 216°
2026-05-08 00:43 34.54333 -15.23784 33834 ft 381 kts 216°
2026-05-08 00:44 34.52138 -15.25584 33536 ft 380 kts 217°
2026-05-08 00:44 34.49955 -15.27377 33262 ft 378 kts 217°
2026-05-08 00:44 34.47782 -15.29167 33006 ft 377 kts 217°
2026-05-08 00:44 34.45615 -15.30954 32741 ft 376 kts 217°
2026-05-08 00:45 34.43481 -15.32708 32489 ft 374 kts 217°
2026-05-08 00:45 34.41326 -15.34478 32230 ft 373 kts 217°
2026-05-08 00:45 34.39182 -15.36240 31979 ft 372 kts 217°
2026-05-08 00:45 34.37043 -15.37991 31719 ft 371 kts 217°
2026-05-08 00:46 34.34909 -15.39733 31472 ft 370 kts 217°
2026-05-08 00:46 34.32777 -15.41472 31224 ft 369 kts 218°
2026-05-08 00:46 34.30654 -15.43206 30978 ft 367 kts 218°
2026-05-08 00:46 34.28535 -15.44939 30734 ft 366 kts 218°
2026-05-08 00:47 34.26421 -15.46667 30494 ft 365 kts 218°
2026-05-08 00:47 34.24320 -15.48377 30231 ft 364 kts 218°
2026-05-08 00:47 34.22223 -15.50083 29978 ft 362 kts 218°
2026-05-08 00:47 34.20144 -15.51777 29684 ft 360 kts 218°
2026-05-08 00:48 34.18093 -15.53452 29408 ft 359 kts 218°
2026-05-08 00:48 34.16028 -15.55139 29134 ft 358 kts 219°
2026-05-08 00:48 34.13964 -15.56822 28853 ft 357 kts 219°
2026-05-08 00:48 34.11913 -15.58490 28575 ft 355 kts 219°
2026-05-08 00:49 34.09867 -15.60155 28305 ft 354 kts 219°
2026-05-08 00:49 34.07826 -15.61816 28033 ft 353 kts 219°
2026-05-08 00:49 34.05812 -15.63451 27764 ft 352 kts 219°
2026-05-08 00:49 34.03779 -15.65099 27494 ft 353 kts 220°
2026-05-08 00:50 34.01725 -15.66767 27232 ft 358 kts 220°
2026-05-08 00:50 33.99657 -15.68444 26965 ft 359 kts 220°
2026-05-08 00:50 33.97583 -15.70120 26717 ft 358 kts 220°
2026-05-08 00:50 33.95517 -15.71786 26432 ft 356 kts 220°
2026-05-08 00:51 33.93463 -15.73442 26174 ft 354 kts 220°
2026-05-08 00:51 33.91417 -15.75096 25919 ft 353 kts 220°
2026-05-08 00:51 33.89407 -15.76722 25679 ft 351 kts 221°
2026-05-08 00:51 33.87382 -15.78358 25432 ft 350 kts 220°
2026-05-08 00:52 33.85356 -15.79990 25187 ft 349 kts 221°
2026-05-08 00:52 33.83344 -15.81613 24946 ft 348 kts 221°
2026-05-08 00:52 33.81342 -15.83230 24710 ft 346 kts 221°
2026-05-08 00:52 33.79344 -15.84846 24468 ft 345 kts 221°
2026-05-08 00:53 33.77357 -15.86450 24226 ft 344 kts 221°
2026-05-08 00:53 33.75372 -15.88050 23996 ft 342 kts 221°
2026-05-08 00:53 33.73421 -15.89619 23773 ft 341 kts 221°
2026-05-08 00:53 33.71449 -15.91202 23531 ft 340 kts 221°
2026-05-08 00:54 33.69485 -15.92777 23258 ft 339 kts 221°
2026-05-08 00:54 33.67528 -15.94345 22961 ft 337 kts 221°
2026-05-08 00:54 33.65575 -15.95899 22689 ft 336 kts 220°
2026-05-08 00:54 33.63620 -15.97415 22419 ft 335 kts 220°
2026-05-08 00:55 33.61658 -15.98917 22152 ft 334 kts 220°
2026-05-08 00:55 33.59696 -16.00410 21863 ft 334 kts 220°
2026-05-08 00:55 33.57735 -16.01903 21604 ft 334 kts 220°
2026-05-08 00:55 33.55775 -16.03398 21348 ft 333 kts 220°
2026-05-08 00:56 33.53821 -16.04889 21087 ft 332 kts 220°
2026-05-08 00:56 33.51876 -16.06370 20830 ft 331 kts 220°
2026-05-08 00:56 33.49943 -16.07843 20513 ft 327 kts 221°
2026-05-08 00:56 33.48056 -16.09285 20126 ft 325 kts 221°
2026-05-08 00:57 33.46156 -16.10738 19688 ft 324 kts 220°
2026-05-08 00:57 33.44251 -16.12195 19254 ft 324 kts 220°
2026-05-08 00:57 33.42350 -16.13650 18824 ft 324 kts 220°
2026-05-08 00:57 33.40449 -16.15102 18380 ft 324 kts 220°
2026-05-08 00:58 33.38546 -16.16556 17927 ft 324 kts 220°
2026-05-08 00:58 33.36647 -16.18005 17498 ft 323 kts 220°
2026-05-08 00:58 33.34756 -16.19445 17080 ft 321 kts 220°
2026-05-08 00:58 33.32871 -16.20880 16664 ft 320 kts 220°
2026-05-08 00:59 33.30993 -16.22311 16257 ft 319 kts 220°
2026-05-08 00:59 33.29119 -16.23738 15855 ft 318 kts 219°
2026-05-08 00:59 33.27275 -16.25140 15457 ft 318 kts 219°
2026-05-08 00:59 33.25408 -16.26557 15060 ft 317 kts 219°
2026-05-08 01:00 33.23546 -16.27968 14661 ft 317 kts 219°
2026-05-08 01:00 33.21682 -16.29380 14260 ft 317 kts 218°
2026-05-08 01:00 33.19824 -16.30790 13862 ft 317 kts 218°
2026-05-08 01:00 33.17964 -16.32203 13428 ft 316 kts 218°
2026-05-08 01:01 33.16111 -16.33610 13022 ft 314 kts 218°
2026-05-08 01:01 33.14271 -16.35004 12614 ft 312 kts 218°
2026-05-08 01:01 33.12437 -16.36391 12215 ft 311 kts 218°
2026-05-08 01:01 33.10618 -16.37769 11795 ft 309 kts 218°
2026-05-08 01:02 33.08806 -16.39143 11413 ft 308 kts 218°
2026-05-08 01:02 33.06997 -16.40512 11003 ft 307 kts 218°
2026-05-08 01:02 33.05219 -16.41856 10611 ft 306 kts 217°
2026-05-08 01:02 33.03394 -16.43232 10202 ft 305 kts 217°
2026-05-08 01:03 33.01628 -16.44560 9886 ft 302 kts 217°
2026-05-08 01:03 32.99901 -16.45855 9586 ft 286 kts 217°
2026-05-08 01:03 32.98226 -16.47114 8998 ft 280 kts 217°
2026-05-08 01:03 32.96608 -16.48337 8562 ft 270 kts 217°
2026-05-08 01:04 32.95069 -16.49497 8170 ft 259 kts 217°
2026-05-08 01:04 32.93574 -16.50624 7800 ft 249 kts 217°
2026-05-08 01:04 32.92216 -16.51841 7432 ft 242 kts 226°
2026-05-08 01:04 32.90971 -16.53187 7063 ft 241 kts 226°
2026-05-08 01:05 32.89729 -16.54518 6696 ft 240 kts 226°
2026-05-08 01:05 32.88484 -16.55849 6317 ft 240 kts 225°
2026-05-08 01:05 32.87245 -16.57169 5911 ft 236 kts 225°
2026-05-08 01:05 32.86021 -16.58474 5531 ft 236 kts 225°
2026-05-08 01:06 32.84802 -16.59775 5145 ft 235 kts 225°
2026-05-08 01:06 32.83584 -16.61076 4753 ft 235 kts 224°
2026-05-08 01:06 32.82412 -16.62329 4618 ft 223 kts 225°
2026-05-08 01:06 32.81286 -16.63530 4551 ft 211 kts 225°
2026-05-08 01:07 32.80217 -16.64668 4469 ft 202 kts 225°
2026-05-08 01:07 32.79205 -16.65774 4377 ft 193 kts 229°
2026-05-08 01:07 32.78359 -16.66968 4298 ft 187 kts 239°
2026-05-08 01:07 32.77543 -16.68177 4231 ft 188 kts 229°
2026-05-08 01:08 32.76537 -16.69183 4150 ft 190 kts 218°
2026-05-08 01:08 32.75371 -16.69942 4079 ft 192 kts 207°
2026-05-08 01:08 32.74079 -16.70417 3998 ft 198 kts 198°
2026-05-08 01:08 32.72705 -16.70493 3999 ft 202 kts 172°
2026-05-08 01:09 32.71488 -16.69764 4237 ft 188 kts 141°
2026-05-08 01:09 32.70804 -16.68508 4085 ft 189 kts 110°
2026-05-08 01:09 32.70652 -16.66798 3010 ft 231 kts 83°
2026-05-08 01:09 32.71013 -16.64893 2479 ft 234 kts 73°
2026-05-08 01:10 32.71441 -16.63147 2585 ft 206 kts 70°
2026-05-08 01:10 32.72201 -16.61925 2877 ft 176 kts 22°
2026-05-08 01:10 32.73365 -16.61672 2600 ft 170 kts 348°
2026-05-08 01:10 32.74501 -16.61941 2155 ft 164 kts 339°
2026-05-08 01:11 32.75560 -16.62273 1863 ft 153 kts 338°
2026-05-08 01:11 32.76470 -16.62744 1865 ft 135 kts 310°
2026-05-08 01:11 32.76958 -16.63678 1829 ft 130 kts 283°
2026-05-08 01:11 32.77050 -16.64718 1726 ft 129 kts 263°
2026-05-08 01:12 32.76892 -16.65778 1843 ft 130 kts 255°
2026-05-08 01:12 32.76661 -16.66823 1908 ft 132 kts 256°
2026-05-08 01:12 32.76430 -16.67878 1933 ft 131 kts 255°
2026-05-08 01:12 32.76028 -16.68856 2160 ft 135 kts 240°
2026-05-08 01:13 32.75559 -16.69811 1946 ft 133 kts 243°
2026-05-08 01:13 32.75082 -16.70751 1648 ft 132 kts 239°
2026-05-08 01:13 32.74507 -16.71602 1432 ft 131 kts 233°
2026-05-08 01:13 32.73913 -16.72419 1137 ft 131 kts 232°
2026-05-08 01:14 32.73308 -16.73236 799 ft 132 kts 233°
2026-05-08 01:14 32.72790 -16.74114 643 ft 130 kts 229°
2026-05-08 01:14 32.72096 -16.74794 543 ft 131 kts 212°
2026-05-08 01:14 32.71423 -16.75474 497 ft 128 kts 232°
2026-05-08 01:15 32.70838 -16.76295 356 ft 131 kts 224°
2026-05-08 01:15 32.70374 -16.76758 229 ft 131 kts 224°
2026-05-08 01:15 32.69617 -16.77643 177 ft 92 kts 226°
2026-05-08 01:15 32.69329 -16.77973 169 ft 18 kts 206°
2026-05-08 01:16 32.69300 -16.77967 169 ft 3 kts 118°
2026-05-08 01:16 32.69291 -16.77943 169 ft 2 kts 107°
2026-05-08 01:16 32.69289 -16.77936 169 ft 1 kts 104°
2026-05-08 01:16 32.69289 -16.77918 169 ft 5 kts 91°
2026-05-08 01:17 32.69291 -16.77872 169 ft 5 kts 81°
2026-05-08 01:17 32.69308 -16.77835 169 ft 6 kts 47°
2026-05-08 01:17 32.69342 -16.77792 169 ft 9 kts 47°
2026-05-08 01:17 32.69394 -16.77726 169 ft 9 kts 46°
2026-05-08 01:18 32.69432 -16.77680 169 ft 7 kts 47°
2026-05-08 01:18 32.69452 -16.77655 169 ft 0 kts 46°
2026-05-08 01:18 32.69453 -16.77654 169 ft 1 kts 46°
2026-05-08 01:18 32.69457 -16.77642 169 ft 1 kts 78°
2026-05-08 01:19 32.69456 -16.77641 169 ft 0 kts 94°
2026-05-08 01:19 32.69454 -16.77639 169 ft 2 kts 117°
2026-05-08 01:19 32.69438 -16.77619 169 ft 2 kts 134°
2026-05-08 01:20 32.69427 -16.77606 169 ft 2 kts 139°
2026-05-08 01:20 32.69418 -16.77597 169 ft 2 kts 138°
2026-05-08 01:20 32.69411 -16.77590 169 ft 0 kts 138°